Time,TemperatureF,DewpointF,PressureIn,WindDirection,WindDirectionDegrees,WindSpeedMPH,WindSpeedGustMPH,Humidity,HourlyPrecipIn,Conditions,Clouds,dailyrainin,SolarRadiationWatts/m^2,SoftwareType,DateUTC
2013-06-24 00:02:00,61.0,55.8,29.80,SSE,155,0.0,0.0,83,0.00,,,0.00,0,Wunderground v.1.15,2013-06-24 07:02:00,
2013-06-24 00:12:00,61.0,56.1,29.80,ENE,62,0.0,0.0,84,0.00,,,0.00,0,Wunderground v.1.15,2013-06-24 07:12:00,
2013-06-24 00:22:00,60.9,56.0,29.80,SE,127,0.0,0.0,84,0.00,,,0.00,0,Wunderground v.1.15,2013-06-24 07:22:00,
2013-06-24 00:27:00,60.9,56.0,29.80,SE,127,0.0,0.0,84,0.00,,,0.00,0,Wunderground v.1.15,2013-06-24 07:27:00,
2013-06-24 00:37:00,61.0,56.1,29.80,SE,136,0.0,0.0,84,0.00,,,0.00,0,Wunderground v.1.15,2013-06-24 07:37:00,
2013-06-24 00:52:00,61.1,56.2,29.80,SSE,150,0.0,0.0,84,0.00,,,0.00,0,Wunderground v.1.15,2013-06-24 07:52:00,
2013-06-24 00:57:00,61.1,56.2,29.80,SSE,163,0.0,0.0,84,0.00,,,0.00,0,Wunderground v.1.15,2013-06-24 07:57:00,
2013-06-24 01:07:00,60.9,56.0,29.80,SW,233,0.0,0.0,84,0.00,,,0.00,0,Wunderground v.1.15,2013-06-24 08:07:00,
2013-06-24 01:12:00,60.8,55.9,29.80,SSW,205,0.0,0.0,84,0.00,,,0.00,0,Wunderground v.1.15,2013-06-24 08:12:00,
2013-06-24 01:22:00,60.4,55.9,29.80,NNE,29,0.0,0.0,85,0.00,,,0.00,0,Wunderground v.1.15,2013-06-24 08:22:00,
2013-06-24 01:32:00,60.2,56.0,29.79,East,94,0.0,0.0,86,0.00,,,0.00,0,Wunderground v.1.15,2013-06-24 08:32:00,
2013-06-24 01:42:00,60.1,55.9,29.79,ESE,116,0.0,0.0,86,0.00,,,0.00,0,Wunderground v.1.15,2013-06-24 08:42:00,
2013-06-24 01:47:00,59.9,55.7,29.80,East,92,0.0,0.0,86,0.00,,,0.00,0,Wunderground v.1.15,2013-06-24 08:47:00,
2013-06-24 01:57:00,59.7,55.8,29.79,ESE,119,0.0,1.0,87,0.00,,,0.00,0,Wunderground v.1.15,2013-06-24 08:57:00,
2013-06-24 02:02:00,59.6,55.4,29.79,ESE,119,0.0,0.0,86,0.00,,,0.00,0,Wunderground v.1.15,2013-06-24 09:02:00,
2013-06-24 02:07:00,59.5,55.6,29.79,SE,132,0.0,0.0,87,0.00,,,0.00,0,Wunderground v.1.15,2013-06-24 09:07:00,
2013-06-24 02:12:00,59.5,55.6,29.79,SE,132,0.0,0.0,87,0.00,,,0.00,0,Wunderground v.1.15,2013-06-24 09:12:00,
2013-06-24 02:32:00,59.3,55.1,29.79,WNW,285,0.0,0.0,86,0.00,,,0.00,0,Wunderground v.1.15,2013-06-24 09:32:00,
2013-06-24 02:47:00,59.1,54.9,29.79,NE,51,0.0,0.0,86,0.00,,,0.00,0,Wunderground v.1.15,2013-06-24 09:47:00,
2013-06-24 02:52:00,59.1,55.2,29.79,East,86,0.0,0.0,87,0.00,,,0.00,0,Wunderground v.1.15,2013-06-24 09:52:00,
2013-06-24 03:02:00,59.1,55.2,29.79,SE,127,0.0,0.0,87,0.00,,,0.00,0,Wunderground v.1.15,2013-06-24 10:02:00,
2013-06-24 03:12:00,59.0,55.1,29.79,South,179,0.0,0.0,87,0.00,,,0.00,0,Wunderground v.1.15,2013-06-24 10:12:00,
2013-06-24 03:22:00,58.9,55.4,29.78,ESE,106,0.0,1.0,88,0.00,,,0.00,0,Wunderground v.1.15,2013-06-24 10:22:00,
2013-06-24 03:37:00,58.9,55.4,29.78,East,101,0.0,0.0,88,0.00,,,0.00,0,Wunderground v.1.15,2013-06-24 10:37:00,
2013-06-24 03:47:00,58.8,55.6,29.78,South,184,0.0,0.0,89,0.00,,,0.00,0,Wunderground v.1.15,2013-06-24 10:47:00,
2013-06-24 03:57:00,58.7,55.5,29.78,South,178,0.0,0.0,89,0.00,,,0.00,0,Wunderground v.1.15,2013-06-24 10:57:00,
2013-06-24 04:02:00,58.7,55.5,29.78,South,176,0.0,0.0,89,0.00,,,0.00,0,Wunderground v.1.15,2013-06-24 11:02:00,
2013-06-24 04:07:00,58.7,55.5,29.78,SSE,162,0.0,0.0,89,0.00,,,0.00,0,Wunderground v.1.15,2013-06-24 11:07:00,
2013-06-24 04:17:00,58.5,55.0,29.78,NNE,15,0.0,0.0,88,0.00,,,0.00,0,Wunderground v.1.15,2013-06-24 11:17:00,
2013-06-24 04:22:00,58.5,54.6,29.78,NNE,30,0.0,0.0,87,0.00,,,0.00,0,Wunderground v.1.15,2013-06-24 11:22:00,
2013-06-24 04:32:00,58.5,54.6,29.79,ENE,61,0.0,0.0,87,0.00,,,0.00,0,Wunderground v.1.15,2013-06-24 11:32:00,
2013-06-24 04:42:00,58.7,54.5,29.80,WNW,298,0.0,0.0,86,0.00,,,0.00,0,Wunderground v.1.15,2013-06-24 11:42:00,
2013-06-24 04:52:00,58.8,54.6,29.80,WNW,298,0.0,0.0,86,0.00,,,0.00,0,Wunderground v.1.15,2013-06-24 11:52:00,
2013-06-24 05:12:00,58.6,54.4,29.79,ENE,77,0.0,0.0,86,0.00,,,0.00,0,Wunderground v.1.15,2013-06-24 12:12:00,
2013-06-24 05:32:00,58.4,54.5,29.79,ENE,77,0.0,0.0,87,0.00,,,0.00,0,Wunderground v.1.15,2013-06-24 12:32:00,
2013-06-24 05:37:00,58.5,54.6,29.79,ENE,77,0.0,0.0,87,0.00,,,0.00,0,Wunderground v.1.15,2013-06-24 12:37:00,
2013-06-24 05:47:00,58.6,55.1,29.80,ENE,77,0.0,0.0,88,0.00,,,0.00,0,Wunderground v.1.15,2013-06-24 12:47:00,
2013-06-24 05:52:00,58.7,54.8,29.80,ENE,77,0.0,0.0,87,0.00,,,0.00,0,Wunderground v.1.15,2013-06-24 12:52:00,
2013-06-24 05:57:00,58.7,54.8,29.80,ENE,77,0.0,0.0,87,0.00,,,0.00,5,Wunderground v.1.15,2013-06-24 12:57:00,
2013-06-24 06:07:00,58.7,54.8,29.81,ENE,77,0.0,0.0,87,0.00,,,0.00,14,Wunderground v.1.15,2013-06-24 13:07:00,
2013-06-24 06:17:00,59.0,55.1,29.81,ENE,77,0.0,0.0,87,0.00,,,0.00,12,Wunderground v.1.15,2013-06-24 13:17:00,
2013-06-24 06:27:00,58.8,54.9,29.81,ENE,78,0.0,0.0,87,0.00,,,0.00,18,Wunderground v.1.15,2013-06-24 13:27:00,
2013-06-24 06:32:00,58.6,54.7,29.81,ENE,77,0.0,0.0,87,0.00,,,0.00,21,Wunderground v.1.15,2013-06-24 13:32:00,
2013-06-24 06:37:00,58.6,55.1,29.81,ENE,77,0.0,0.0,88,0.00,,,0.00,26,Wunderground v.1.15,2013-06-24 13:37:00,
2013-06-24 06:42:00,58.6,55.1,29.81,ENE,77,0.0,0.0,88,0.00,,,0.00,32,Wunderground v.1.15,2013-06-24 13:42:00,
2013-06-24 06:52:00,58.9,55.0,29.81,ENE,78,0.0,0.0,87,0.00,,,0.00,39,Wunderground v.1.15,2013-06-24 13:52:00,
2013-06-24 07:02:00,59.2,55.3,29.81,ENE,78,0.0,0.0,87,0.00,,,0.00,35,Wunderground v.1.15,2013-06-24 14:02:00,
2013-06-24 07:07:00,59.3,55.4,29.81,ENE,77,0.0,0.0,87,0.00,,,0.00,32,Wunderground v.1.15,2013-06-24 14:07:00,
2013-06-24 07:17:00,59.3,55.1,29.82,SSW,205,0.0,0.0,86,0.00,,,0.00,62,Wunderground v.1.15,2013-06-24 14:17:00,
2013-06-24 07:22:00,59.3,55.1,29.82,SSW,206,0.0,0.0,86,0.00,,,0.00,56,Wunderground v.1.15,2013-06-24 14:22:00,
2013-06-24 07:32:00,59.4,55.2,29.82,SSW,213,0.0,0.0,86,0.00,,,0.00,42,Wunderground v.1.15,2013-06-24 14:32:00,
2013-06-24 07:47:00,59.2,55.3,29.82,SW,217,0.0,0.0,87,0.00,,,0.00,79,Wunderground v.1.15,2013-06-24 14:47:00,
2013-06-24 07:52:00,59.3,55.4,29.82,SW,217,0.0,0.0,87,0.00,,,0.00,67,Wunderground v.1.15,2013-06-24 14:52:00,
2013-06-24 07:57:00,59.4,55.8,29.82,SW,217,0.0,0.0,88,0.00,,,0.00,65,Wunderground v.1.15,2013-06-24 14:57:00,
2013-06-24 08:07:00,59.3,55.7,29.83,SW,217,0.0,0.0,88,0.00,,,0.00,63,Wunderground v.1.15,2013-06-24 15:07:00,
2013-06-24 08:17:00,59.5,56.3,29.83,SW,217,0.0,0.0,89,0.00,,,0.00,62,Wunderground v.1.15,2013-06-24 15:17:00,
2013-06-24 08:22:00,59.5,56.6,29.84,SW,217,0.0,0.0,90,0.00,,,0.00,58,Wunderground v.1.15,2013-06-24 15:22:00,
2013-06-24 08:32:00,59.5,56.6,29.84,SE,136,0.0,0.0,90,0.00,,,0.00,90,Wunderground v.1.15,2013-06-24 15:32:00,
2013-06-24 08:42:00,59.5,56.6,29.84,SE,136,0.0,0.0,90,0.00,,,0.00,74,Wunderground v.1.15,2013-06-24 15:42:00,
2013-06-24 08:47:00,59.4,56.5,29.84,SE,136,0.0,0.0,90,0.00,,,0.00,47,Wunderground v.1.15,2013-06-24 15:47:00,
2013-06-24 08:57:00,59.4,56.8,29.85,SE,136,0.0,0.0,91,0.00,,,0.00,51,Wunderground v.1.15,2013-06-24 15:57:00,
2013-06-24 09:07:00,59.6,57.3,29.85,SE,136,0.0,0.0,92,0.00,,,0.00,123,Wunderground v.1.15,2013-06-24 16:07:00,
2013-06-24 09:12:00,59.9,57.6,29.84,SE,136,0.0,0.0,92,0.00,,,0.00,155,Wunderground v.1.15,2013-06-24 16:12:00,
2013-06-24 09:17:00,60.0,57.7,29.84,SE,136,0.0,0.0,92,0.00,,,0.00,186,Wunderground v.1.15,2013-06-24 16:17:00,
2013-06-24 09:27:00,60.3,58.0,29.85,SE,136,0.0,0.0,92,0.00,,,0.01,128,Wunderground v.1.15,2013-06-24 16:27:00,
2013-06-24 09:37:00,60.3,58.0,29.85,South,180,0.0,1.0,92,0.00,,,0.01,158,Wunderground v.1.15,2013-06-24 16:37:00,
2013-06-24 09:42:00,60.5,58.2,29.85,South,171,0.0,0.0,92,0.00,,,0.01,155,Wunderground v.1.15,2013-06-24 16:42:00,
2013-06-24 09:52:00,60.4,57.8,29.85,SSE,158,0.0,0.0,91,0.00,,,0.01,141,Wunderground v.1.15,2013-06-24 16:52:00,
2013-06-24 09:57:00,60.4,57.8,29.85,SSW,197,0.0,0.0,91,0.00,,,0.01,174,Wunderground v.1.15,2013-06-24 16:57:00,
2013-06-24 10:07:00,60.6,57.7,29.86,SE,143,0.0,0.0,90,0.00,,,0.01,125,Wunderground v.1.15,2013-06-24 17:07:00,
2013-06-24 10:17:00,60.6,57.7,29.85,WSW,252,0.0,0.0,90,0.00,,,0.01,123,Wunderground v.1.15,2013-06-24 17:17:00,
2013-06-24 10:27:00,60.8,57.5,29.85,WSW,243,0.0,0.0,89,0.00,,,0.01,123,Wunderground v.1.15,2013-06-24 17:27:00,
2013-06-24 10:37:00,60.8,57.5,29.85,WSW,258,0.0,0.0,89,0.00,,,0.01,134,Wunderground v.1.15,2013-06-24 17:37:00,
2013-06-24 10:47:00,61.1,57.8,29.86,SSW,201,0.0,0.0,89,0.00,,,0.01,105,Wunderground v.1.15,2013-06-24 17:47:00,
2013-06-24 10:52:00,60.9,57.6,29.87,WSW,244,0.0,0.0,89,0.00,,,0.01,60,Wunderground v.1.15,2013-06-24 17:52:00,
2013-06-24 11:02:00,60.6,57.7,29.88,WSW,243,0.0,0.0,90,0.00,,,0.01,139,Wunderground v.1.15,2013-06-24 18:02:00,
2013-06-24 11:07:00,60.5,57.6,29.88,ESE,113,0.0,0.0,90,0.00,,,0.01,93,Wunderground v.1.15,2013-06-24 18:07:00,
2013-06-24 11:17:00,60.5,58.2,29.88,South,191,0.0,0.0,92,0.00,,,0.01,120,Wunderground v.1.15,2013-06-24 18:17:00,
2013-06-24 11:22:00,60.8,58.5,29.88,SSE,167,0.0,0.0,92,0.00,,,0.01,153,Wunderground v.1.15,2013-06-24 18:22:00,
2013-06-24 11:32:00,61.0,58.4,29.87,SW,225,0.0,0.0,91,0.00,,,0.01,186,Wunderground v.1.15,2013-06-24 18:32:00,
2013-06-24 11:37:00,61.1,58.8,29.88,SW,225,0.0,0.0,92,0.00,,,0.01,148,Wunderground v.1.15,2013-06-24 18:37:00,
2013-06-24 12:02:00,63.1,59.2,29.87,SSE,168,0.0,0.0,87,0.00,,,0.01,325,Wunderground v.1.15,2013-06-24 19:02:00,
2013-06-24 12:07:00,63.3,59.7,29.88,WSW,243,0.0,0.0,88,0.00,,,0.01,399,Wunderground v.1.15,2013-06-24 19:07:00,
2013-06-24 12:17:00,64.0,59.4,29.88,SE,142,0.0,1.0,85,0.00,,,0.01,320,Wunderground v.1.15,2013-06-24 19:17:00,
2013-06-24 12:22:00,64.4,59.5,29.88,WNW,292,0.0,0.0,84,0.00,,,0.01,323,Wunderground v.1.15,2013-06-24 19:22:00,
2013-06-24 12:27:00,64.5,59.2,29.88,SSE,159,0.0,0.0,83,0.00,,,0.01,374,Wunderground v.1.15,2013-06-24 19:27:00,
2013-06-24 12:32:00,64.7,59.4,29.88,South,180,0.0,0.0,83,0.00,,,0.01,278,Wunderground v.1.15,2013-06-24 19:32:00,
2013-06-24 12:42:00,64.1,57.5,29.88,SW,233,0.0,0.0,79,0.00,,,0.01,193,Wunderground v.1.15,2013-06-24 19:42:00,
2013-06-24 12:47:00,64.1,58.5,29.88,SSW,193,0.0,0.0,82,0.00,,,0.01,197,Wunderground v.1.15,2013-06-24 19:47:00,
2013-06-24 12:52:00,63.9,58.3,29.88,WSW,244,0.0,0.0,82,0.00,,,0.01,181,Wunderground v.1.15,2013-06-24 19:52:00,
2013-06-24 13:02:00,64.0,57.7,29.88,WNW,297,0.0,1.0,80,0.00,,,0.01,211,Wunderground v.1.15,2013-06-24 20:02:00,
2013-06-24 13:07:00,64.4,58.4,29.88,WNW,290,0.0,1.0,81,0.00,,,0.01,135,Wunderground v.1.15,2013-06-24 20:07:00,
2013-06-24 13:12:00,64.0,58.4,29.88,SE,136,0.0,0.0,82,0.00,,,0.01,120,Wunderground v.1.15,2013-06-24 20:12:00,
2013-06-24 13:22:00,63.7,57.8,29.88,NNW,331,0.0,0.0,81,0.00,,,0.01,163,Wunderground v.1.15,2013-06-24 20:22:00,
2013-06-24 13:32:00,63.0,58.4,29.88,South,180,0.0,0.0,85,0.00,,,0.01,88,Wunderground v.1.15,2013-06-24 20:32:00,
2013-06-24 13:37:00,62.5,58.6,29.88,South,180,0.0,0.0,87,0.00,,,0.01,62,Wunderground v.1.15,2013-06-24 20:37:00,
2013-06-24 13:42:00,62.1,58.8,29.89,South,180,0.0,0.0,89,0.00,,,0.01,65,Wunderground v.1.15,2013-06-24 20:42:00,
2013-06-24 13:52:00,61.5,58.5,29.89,WSW,243,0.0,0.0,90,0.00,,,0.01,155,Wunderground v.1.15,2013-06-24 20:52:00,
2013-06-24 13:57:00,61.5,58.8,29.89,NNW,329,0.0,0.0,91,0.00,,,0.01,146,Wunderground v.1.15,2013-06-24 20:57:00,
2013-06-24 14:12:00,61.5,59.2,29.89,NNW,339,0.0,1.0,92,0.00,,,0.01,74,Wunderground v.1.15,2013-06-24 21:12:00,
2013-06-24 14:27:00,61.4,59.4,29.89,ENE,77,0.0,0.0,93,0.00,,,0.01,130,Wunderground v.1.15,2013-06-24 21:27:00,
2013-06-24 14:32:00,61.2,58.9,29.89,East,90,0.0,0.0,92,0.00,,,0.01,134,Wunderground v.1.15,2013-06-24 21:32:00,
2013-06-24 14:42:00,60.5,58.2,29.89,ESE,104,0.0,0.0,92,0.00,,,0.02,195,Wunderground v.1.15,2013-06-24 21:42:00,
2013-06-24 14:52:00,60.9,58.6,29.89,ESE,104,0.0,0.0,92,0.00,,,0.02,181,Wunderground v.1.15,2013-06-24 21:52:00,
2013-06-24 15:02:00,61.3,59.0,29.89,ESE,123,0.0,0.0,92,0.00,,,0.02,123,Wunderground v.1.15,2013-06-24 22:02:00,
2013-06-24 15:12:00,61.4,59.1,29.89,ESE,123,0.0,0.0,92,0.00,,,0.02,121,Wunderground v.1.15,2013-06-24 22:12:00,
2013-06-24 15:17:00,61.0,58.7,29.89,ESE,108,0.0,0.0,92,0.00,,,0.02,104,Wunderground v.1.15,2013-06-24 22:17:00,
2013-06-24 15:22:00,60.9,58.6,29.89,ESE,108,0.0,0.0,92,0.00,,,0.02,125,Wunderground v.1.15,2013-06-24 22:22:00,
2013-06-24 15:32:00,60.6,58.6,29.89,ESE,108,0.0,0.0,93,0.00,,,0.02,90,Wunderground v.1.15,2013-06-24 22:32:00,
2013-06-24 15:42:00,60.5,58.5,29.90,ESE,115,0.0,0.0,93,0.00,,,0.02,127,Wunderground v.1.15,2013-06-24 22:42:00,
2013-06-24 15:52:00,60.5,58.5,29.90,SE,144,0.0,0.0,93,0.00,,,0.02,114,Wunderground v.1.15,2013-06-24 22:52:00,
2013-06-24 16:02:00,60.2,58.2,29.90,SSE,147,0.0,1.0,93,0.00,,,0.03,120,Wunderground v.1.15,2013-06-24 23:02:00,
2013-06-24 16:07:00,60.0,58.0,29.90,East,80,0.0,1.0,93,0.00,,,0.03,130,Wunderground v.1.15,2013-06-24 23:07:00,
2013-06-24 16:17:00,59.6,57.6,29.90,ENE,61,0.0,0.0,93,0.00,,,0.03,70,Wunderground v.1.15,2013-06-24 23:17:00,
2013-06-24 16:27:00,59.4,57.4,29.90,SE,135,0.0,1.0,93,0.00,,,0.03,69,Wunderground v.1.15,2013-06-24 23:27:00,
2013-06-24 16:32:00,59.6,57.6,29.90,SE,136,0.0,0.0,93,0.00,,,0.03,69,Wunderground v.1.15,2013-06-24 23:32:00,
2013-06-24 16:42:00,59.5,57.5,29.90,ENE,77,0.0,0.0,93,0.00,,,0.03,46,Wunderground v.1.15,2013-06-24 23:42:00,
2013-06-24 16:47:00,59.6,57.9,29.90,East,92,0.0,0.0,94,0.00,,,0.03,49,Wunderground v.1.15,2013-06-24 23:47:00,
2013-06-24 17:02:00,60.6,59.2,29.90,ESE,118,0.0,0.0,95,0.00,,,0.03,149,Wunderground v.1.15,2013-06-25 00:02:00,
2013-06-24 17:07:00,60.5,58.8,29.90,East,82,0.0,0.0,94,0.00,,,0.03,100,Wunderground v.1.15,2013-06-25 00:07:00,
2013-06-24 17:17:00,60.6,58.9,29.90,ESE,119,0.0,0.0,94,0.00,,,0.03,86,Wunderground v.1.15,2013-06-25 00:17:00,
2013-06-24 17:22:00,60.9,59.5,29.89,ESE,119,0.0,0.0,95,0.00,,,0.04,113,Wunderground v.1.15,2013-06-25 00:22:00,
2013-06-24 17:27:00,60.9,59.5,29.89,ESE,119,0.0,0.0,95,0.00,,,0.04,139,Wunderground v.1.15,2013-06-25 00:27:00,
2013-06-24 17:37:00,61.0,59.3,29.89,ESE,115,0.0,0.0,94,0.00,,,0.04,116,Wunderground v.1.15,2013-06-25 00:37:00,
2013-06-24 17:42:00,60.5,58.5,29.89,East,83,0.0,0.0,93,0.00,,,0.04,60,Wunderground v.1.15,2013-06-25 00:42:00,
2013-06-24 17:57:00,60.3,58.6,29.89,East,83,0.0,0.0,94,0.00,,,0.04,67,Wunderground v.1.15,2013-06-25 00:57:00,
2013-06-24 18:07:00,60.5,58.8,29.89,East,83,0.0,0.0,94,0.00,,,0.04,77,Wunderground v.1.15,2013-06-25 01:07:00,
2013-06-24 18:12:00,60.6,58.9,29.89,East,83,0.0,0.0,94,0.00,,,0.04,49,Wunderground v.1.15,2013-06-25 01:12:00,
2013-06-24 18:22:00,60.4,58.7,29.89,East,83,0.0,0.0,94,0.00,,,0.04,28,Wunderground v.1.15,2013-06-25 01:22:00,
2013-06-24 18:27:00,60.4,58.7,29.90,East,83,0.0,0.0,94,0.00,,,0.04,30,Wunderground v.1.15,2013-06-25 01:27:00,
2013-06-24 18:42:00,60.5,58.8,29.90,East,83,0.0,0.0,94,0.00,,,0.04,49,Wunderground v.1.15,2013-06-25 01:42:00,
2013-06-24 18:52:00,59.9,57.9,29.90,East,83,0.0,0.0,93,0.00,,,0.04,26,Wunderground v.1.15,2013-06-25 01:52:00,
2013-06-24 18:57:00,59.6,57.6,29.90,East,83,0.0,0.0,93,0.00,,,0.04,14,Wunderground v.1.15,2013-06-25 01:57:00,
2013-06-24 19:07:00,59.2,57.2,29.90,East,83,0.0,0.0,93,0.00,,,0.05,11,Wunderground v.1.15,2013-06-25 02:07:00,
2013-06-24 19:17:00,59.1,57.4,29.90,East,83,0.0,0.0,94,0.00,,,0.05,12,Wunderground v.1.15,2013-06-25 02:17:00,
2013-06-24 19:27:00,58.9,57.2,29.90,East,83,0.0,0.0,94,0.00,,,0.05,19,Wunderground v.1.15,2013-06-25 02:27:00,
2013-06-24 19:32:00,59.0,57.3,29.90,East,83,0.0,0.0,94,0.00,,,0.05,21,Wunderground v.1.15,2013-06-25 02:32:00,
2013-06-24 19:37:00,58.9,57.2,29.90,East,83,0.0,0.0,94,0.00,,,0.05,14,Wunderground v.1.15,2013-06-25 02:37:00,
2013-06-24 19:47:00,58.9,57.2,29.90,East,83,0.0,0.0,94,0.00,,,0.05,7,Wunderground v.1.15,2013-06-25 02:47:00,
2013-06-24 19:57:00,59.1,57.4,29.90,East,83,0.0,0.0,94,0.00,,,0.05,5,Wunderground v.1.15,2013-06-25 02:57:00,
2013-06-24 20:02:00,59.2,57.8,29.90,East,83,0.0,0.0,95,0.00,,,0.05,5,Wunderground v.1.15,2013-06-25 03:02:00,
2013-06-24 20:12:00,59.0,57.6,29.90,East,83,0.0,0.0,95,0.00,,,0.05,0,Wunderground v.1.15,2013-06-25 03:12:00,
2013-06-24 20:22:00,58.9,57.5,29.90,East,83,0.0,0.0,95,0.00,,,0.05,0,Wunderground v.1.15,2013-06-25 03:22:00,
2013-06-24 20:42:00,58.8,57.4,29.90,East,83,0.0,0.0,95,0.00,,,0.05,0,Wunderground v.1.15,2013-06-25 03:42:00,
2013-06-24 20:47:00,58.8,57.4,29.90,East,83,0.0,0.0,95,0.00,,,0.05,0,Wunderground v.1.15,2013-06-25 03:47:00,
2013-06-24 21:02:00,58.8,57.4,29.91,East,83,0.0,0.0,95,0.00,,,0.05,0,Wunderground v.1.15,2013-06-25 04:02:00,
2013-06-24 21:07:00,58.9,57.5,29.91,East,83,0.0,0.0,95,0.00,,,0.05,0,Wunderground v.1.15,2013-06-25 04:07:00,
2013-06-24 21:12:00,58.8,57.4,29.91,East,83,0.0,0.0,95,0.00,,,0.05,0,Wunderground v.1.15,2013-06-25 04:12:00,
2013-06-24 21:17:00,58.8,57.4,29.91,East,83,0.0,0.0,95,0.00,,,0.05,0,Wunderground v.1.15,2013-06-25 04:17:00,
2013-06-24 21:27:00,58.8,57.4,29.91,East,83,0.0,0.0,95,0.00,,,0.05,0,Wunderground v.1.15,2013-06-25 04:27:00,
2013-06-24 21:32:00,58.9,57.5,29.91,East,83,0.0,0.0,95,0.00,,,0.05,0,Wunderground v.1.15,2013-06-25 04:32:00,
2013-06-24 21:42:00,58.9,57.5,29.91,East,83,0.0,0.0,95,0.00,,,0.06,0,Wunderground v.1.15,2013-06-25 04:42:00,
2013-06-24 21:52:00,59.0,57.6,29.91,East,83,0.0,0.0,95,0.00,,,0.06,0,Wunderground v.1.15,2013-06-25 04:52:00,
2013-06-24 22:02:00,59.1,57.7,29.92,East,83,0.0,0.0,95,0.00,,,0.06,0,Wunderground v.1.15,2013-06-25 05:02:00,
2013-06-24 22:07:00,59.1,57.7,29.92,East,83,0.0,0.0,95,0.00,,,0.06,0,Wunderground v.1.15,2013-06-25 05:07:00,
2013-06-24 22:17:00,59.1,57.7,29.92,East,83,0.0,0.0,95,0.00,,,0.06,0,Wunderground v.1.15,2013-06-25 05:17:00,
2013-06-24 22:27:00,59.1,57.7,29.92,East,83,0.0,0.0,95,0.00,,,0.06,0,Wunderground v.1.15,2013-06-25 05:27:00,
2013-06-24 22:32:00,59.1,57.7,29.92,East,83,0.0,0.0,95,0.00,,,0.06,0,Wunderground v.1.15,2013-06-25 05:32:00,
2013-06-24 22:42:00,59.1,57.7,29.93,East,83,0.0,0.0,95,0.00,,,0.06,0,Wunderground v.1.15,2013-06-25 05:42:00,
2013-06-24 22:47:00,59.2,57.8,29.93,East,83,0.0,0.0,95,0.00,,,0.06,0,Wunderground v.1.15,2013-06-25 05:47:00,
2013-06-24 22:57:00,59.1,57.7,29.93,East,83,0.0,0.0,95,0.00,,,0.06,0,Wunderground v.1.15,2013-06-25 05:57:00,
2013-06-24 23:02:00,59.1,57.7,29.93,WSW,247,0.0,0.0,95,0.00,,,0.06,0,Wunderground v.1.15,2013-06-25 06:02:00,
2013-06-24 23:12:00,58.9,57.5,29.93,SE,131,0.0,0.0,95,0.00,,,0.06,0,Wunderground v.1.15,2013-06-25 06:12:00,
2013-06-24 23:22:00,58.7,57.3,29.93,SE,124,0.0,0.0,95,0.00,,,0.06,0,Wunderground v.1.15,2013-06-25 06:22:00,
2013-06-24 23:32:00,58.7,57.3,29.93,SE,124,0.0,0.0,95,0.00,,,0.06,0,Wunderground v.1.15,2013-06-25 06:32:00,
2013-06-24 23:37:00,58.7,57.3,29.93,SE,124,0.0,0.0,95,0.00,,,0.06,0,Wunderground v.1.15,2013-06-25 06:37:00,
2013-06-24 23:47:00,58.6,57.2,29.94,SE,124,0.0,0.0,95,0.00,,,0.06,0,Wunderground v.1.15,2013-06-25 06:47:00,
2013-06-24 23:57:00,58.6,57.2,29.93,ESE,123,0.0,0.0,95,0.00,,,0.06,0,Wunderground v.1.15,2013-06-25 06:57:00,